Lid_Strength_Index
-0 1 1 3 11 12 14 10 7 9 9 6 5 6 7 6 9 12 2 1 0 0 -0 -1 -1 -1 -1 -1 -2 -2 -2 -1 -2 -2 -2 -2 -2 -2 -2 -2 -2 -2 -2 -2 -2 -2 -2 -2 -2
2 2 2 6 13 16 14 8 9 8 7 5 5 6 7 8 4 4 3 1 -0 -0 -0 -0 -1 -2 -1 -1 -2 -2 -2 -1 -1 -2 -2 -2 -2 -2 -2 -2 -2 -2 -2 -2 -2 -2 -2 -2 -2
2 2 7 10 13 15 13 8 8 7 5 6 6 5 6 7 4 3 1 0 0 0 -0 -0 -2 -2 -1 -1 -1 -2 -2 -1 -1 -2 -2 -2 -2 -2 -2 -2 -2 -2 -2 -2 -2 -2 -2 -2 -2
4 4 6 12 14 11 10 8 7 7 5 5 5 7 4 2 3 2 0 0 0 0 -0 -1 -2 -2 -1 -1 -1 -2 -2 -2 -1 -2 -2 -2 -2 -2 -2 -2 -2 -2 -2 -2 -2 -2 -2 -2 -2
3 6 12 13 13 11 8 7 6 7 6 6 5 8 7 3 1 1 1 1 1 0 -0 -0 -2 -2 -2 -2 -1 -2 -2 -2 -1 -2 -2 -2 -2 -2 -2 -2 -2 -2 -2 -2 -2 -2 -2 -1 -1
7 7 13 15 13 10 8 6 6 7 6 6 6 7 6 2 2 1 1 0 0 0 -0 -0 -1 -2 -2 -2 -1 -2 -2 -2 -2 -2 -2 -2 -2 -2 -2 -2 -2 -2 -2 -2 -2 -2 -2 -1 -1
8 10 13 13 12 11 9 6 7 7 7 7 5 8 5 3 1 1 1 0 0 -0 -0 -0 0 -1 -2 -2 -2 -2 -2 -2 -1 -2 -2 -2 -2 -2 -2 -2 -2 -2 -2 -2 -1 -2 -2 -2 -1
6 8 12 12 13 13 7 7 6 6 7 3 4 8 8 4 1 1 1 2 1 0 0 0 0 0 0 -0 -2 -2 -2 -1 -2 -2 -2 -2 -2 -2 -2 -2 -2 -2 -2 -2 -1 -1 -1 -2 -3
4 11 13 12 12 11 7 8 5 4 5 5 4 4 4 2 1 2 2 2 1 1 0 0 -0 0 0 -0 -1 -1 -2 -2 -2 -2 -2 -1 0 -0 -1 -1 -2 -2 -2 -2 -2 -1 -1 -1 -1
7 11 11 9 8 9 7 7 6 7 7 6 5 3 2 2 2 3 3 3 2 2 1 0 0 0 0 -0 0 0 -0 -0 -0 -0 -0 -0 -0 0 -1 -1 -1 -1 -2 -1 -1 -1 -1 -1 -0
7 10 8 8 7 7 7 7 5 7 9 6 6 5 3 3 3 3 3 3 2 1 1 1 1 1 0 0 0 0 0 0 -0 -0 -0 0 0 0 0 0 -1 -0 -1 -0 -1 -1 -1 -1 -0
10 8 7 7 7 7 8 6 8 7 7 4 4 3 3 4 3 3 3 3 2 2 1 0 0 0 0 -0 -0 0 0 0 -0 0 -0 -0 0 0 0 -0 -0 -0 -0 0 0 0 -0 -0 -1
9 8 7 6 6 7 6 7 8 7 4 3 3 3 4 3 3 3 2 2 2 2 1 1 0 0 0 0 -0 0 1 0 -0 -0 0 -0 -0 -0 1 -0 1 -1 -1 0 1 0 0 0 0
8 8 7 6 7 7 8 8 7 6 4 4 4 4 3 3 3 3 3 3 2 2 1 1 1 0 0 0 0 0 0 0 1 1 0 0 0 -0 0 0 0 0 -0 0 0 0 0 0 0
7 10 8 8 8 8 7 9 9 5 4 5 5 4 4 3 3 3 3 2 2 2 1 1 1 0 0 0 0 1 -0 -1 -1 2 1 -0 1 0 1 1 0 0 1 0 0 0 0 1 0
9 10 14 9 8 8 8 13 8 5 5 6 5 4 4 3 3 2 2 2 1 1 1 1 0 0 0 1 0 0 -0 -1 -0 0 -0 -1 -0 -0 0 0 1 0 0 -0 0 0 1 1 1
11 15 14 12 8 9 9 11 8 6 6 6 5 5 4 4 3 3 2 2 1 1 1 1 1 1 1 0 0 0 0 -0 0 0 0 0 1 -0 -1 -0 0 0 0 1 1 1 1 2 1
14 14 13 14 10 9 10 10 8 7 6 6 5 5 5 4 4 3 2 2 1 1 1 1 1 1 0 0 0 0 0 0 0 0 0 0 -0 -0 -0 0 2 2 1 0 0 1 1 2 1
9 12 13 12 9 11 11 11 9 8 7 6 6 5 5 5 3 2 2 2 2 1 1 1 1 1 1 1 2 1 2 1 0 0 -0 -0 0 1 1 0 4 3 2 2 1 1 1 1 3
11 12 14 11 10 10 11 11 9 8 8 7 6 5 5 4 4 3 3 2 2 2 1 1 1 1 1 1 1 1 1 1 0 0 0 -0 0 -0 0 0 2 2 1 1 1 1 2 2 1
11 13 13 13 11 10 11 13 12 9 8 7 6 5 5 5 4 4 3 3 2 2 2 2 1 1 1 1 0 1 1 1 1 1 1 0 0 -0 0 0 0 1 2 1 1 1 1 2 2
13 10 10 12 13 17 11 18 13 11 10 8 7 6 5 4 4 4 4 3 3 2 1 1 1 1 1 0 1 2 2 3 1 1 1 0 0 0 -0 0 0 1 3 3 1 0 1 1 3
12 9 11 11 13 14 14 16 14 11 12 10 8 6 6 4 4 4 3 3 2 2 2 1 1 1 1 0 1 1 2 1 1 1 1 0 0 0 0 0 0 0 2 1 1 1 1 1 2
8 11 11 12 14 18 15 16 16 13 12 9 7 6 6 5 4 3 3 3 2 2 2 1 1 1 1 1 1 1 2 2 2 2 1 1 1 0 0 0 0 0 0 1 0 0 1 1 1
9 13 19 20 19 19 13 15 14 10 9 8 7 7 6 4 4 4 4 3 3 2 2 2 2 2 1 1 1 1 1 1 2 1 2 2 1 1 1 0 0 0 0 0 1 1 1 1 1
10 11 16 22 21 19 13 17 14 8 7 7 6 6 5 5 4 4 4 3 3 2 2 2 2 2 1 1 1 1 1 1 1 1 1 1 1 1 0 0 0 0 0 0 0 0 0 1 1
11 12 9 15 15 18 16 13 11 8 9 7 7 6 6 5 4 4 3 3 3 2 2 2 2 2 1 1 1 1 1 1 1 1 1 1 0 0 0 0 0 0 0 0 0 1 1 1 1
9 8 13 13 19 21 17 16 15 12 11 9 7 7 6 5 4 4 4 3 3 2 2 2 2 2 1 1 1 1 1 1 1 1 1 1 1 0 0 0 0 0 0 0 1 1 1 1 1
11 12 12 12 12 17 19 17 11 11 9 9 8 7 6 5 5 4 3 3 3 2 2 2 2 2 2 1 1 1 1 1 1 1 1 1 0 0 0 0 0 1 1 0 1 1 1 1 1
9 11 12 14 14 13 14 16 9 9 8 8 8 7 6 5 4 4 4 3 3 4 2 2 2 2 2 1 1 1 1 1 1 1 1 0 1 0 0 0 1 1 1 0 1 1 1 1 1